Regional Weather Roundup
Issued by NWS Boston, MA

Home | Current Version | Previous Version | Text Only | Print | Product List | Glossary On
Versions: 1 2 3 4 5 6 7 8 9 10 11 12 13 14 15 16 17 18 19 20 21 22 23 24 25 26 27 28 29 30 31 32 33 34 35 36 37 38 39 40 41 42 43 44 45 46 47 48 49 50
000
ASUS41 KBOX 302010
RWRBOX

REGIONAL WEATHER ROUNDUP
NATIONAL WEATHER SERVICE TAUNTON MA
300 PM EST FRI JAN 30 2015

NOTE:  "FAIR" INDICATES FEW OR NO CLOUDS BELOW 12,000 FEET WITH NO
SIGNIFICANT WEATHER AND/OR OBSTRUCTIONS TO VISIBILITY.  THE FOLLOWING
OBSERVATION LOCATIONS DO NOT REPORT PRESENT WEATHER...PROVINCETOWN...
SMITHFIELD...BLOCK ISLAND...KEENE...AND OXFORD.

MAZALL-302100-
EASTERN MASSACHUSETTS

CITY           SKY/WX    TMP DP  RH WIND       PRES   REMARKS
BOSTON         CLOUDY    33  28  81 NW9       29.72S WCI  25
BEVERLY        FLURRIES  32  28  85 NW12      29.70S WCI  23
LAWRENCE       CLOUDY    31  27  85 W7        29.73S WCI  24
BEDFORD        CLOUDY    32  27  81 NW6       29.71S WCI  26
BLUE HILL        N/A     30  27  88 NW12      29.68R WCI  20
NORWOOD        CLOUDY    34  28  79 NW7       29.72S WCI  28
MARSHFIELD     CLOUDY    34  32  93 NW6       29.72S WCI  29
PLYMOUTH       CLOUDY    33  31  92 NW6       29.70S WCI  28
TAUNTON        CLOUDY    34  30  85 NW3       29.70F
NEW BEDFORD    CLOUDY    34  31  88 NW5       29.69F WCI  30
$$

MAZALL-302100-
CAPE COD AND THE ISLANDS

CITY           SKY/WX    TMP DP  RH WIND       PRES   REMARKS
FALMOUTH       CLOUDY    34  32  93 NW8       29.69S WCI  27
HYANNIS        CLOUDY    35  34  96 NW5       29.67S FOG     WCI  31
CHATHAM        CLOUDY    34  33  96 NW6       29.69S WCI  29
PROVINCETOWN   CLOUDY    34  30  86 NW9       29.70S WCI  26
NANTUCKET      CLOUDY    36  33  89 NW13      29.67F WCI  27
MARTHAS VNYRD  CLOUDY    33  30  88 NW10      29.68F WCI  25
$$

MAZALL-302100-
CENTRAL AND WESTERN MASSACHUSETTS

CITY           SKY/WX    TMP DP  RH WIND       PRES   REMARKS
WORCESTER      FLURRIES  29  24  82 NW10      29.68S WCI  20
FITCHBURG      CLOUDY    34  25  69 NW7       29.72R WCI  28
ORANGE         LGT SNOW  31  26  82 NW8       29.73R WCI  23
SPRINGFIELD    FLURRIES  33  22  62 NW13      29.74S WCI  24
WESTFIELD      CLOUDY    32  21  64 NW20      29.76R WCI  20
NORTH ADAMS    LGT SNOW  26  21  81 VRB6G18   29.81R WCI  19
PITTSFIELD     LGT SNOW  24  18  77 NW15G26   29.76R WCI  11
$$

RIZALL-302100-
RHODE ISLAND

CITY           SKY/WX    TMP DP  RH WIND       PRES   REMARKS
PROVIDENCE     CLOUDY    34  27  75 NW9       29.71F WCI  27
NEWPORT        CLOUDY    33  30  88 NW7       29.70F WCI  27
BLOCK ISLAND   CLOUDY    34  27  75 NW12G20   29.70F WCI  25
SMITHFIELD     CLOUDY    32  23  69 NW7       29.69F WCI  26
WESTERLY       CLOUDY    34  26  72 NW10G16   29.73F WCI  26
$$

CTZALL-302100-
CONNECTICUT

CITY           SKY/WX    TMP DP  RH WIND       PRES   REMARKS
BRADLEY INTL   PTSUNNY   34  21  59 NW20G28   29.75S WCI  23
HARTFORD       CLOUDY    33  21  61 NW10G23   29.78R WCI  25
BRIDGEPORT     CLOUDY    35  25  66 NW9       29.79R WCI  28
DANBURY        CLOUDY    33  20  58 NW14G23   29.79S WCI  23
GROTON         CLOUDY    33  26  75 NW12      29.73F WCI  24
NEW HAVEN      CLOUDY    34  22  61 N15G23    29.78S WCI  24
CHESTER        PTSUNNY   32  25  74 N13       29.74S WCI  22
MERIDEN        CLOUDY    33  21  61 NW20G26   29.78S WCI  21
WILLIMANTIC    CLOUDY    33  24  69 NW9       29.74F WCI  25
OXFORD         CLOUDY    30  18  59 N15G23    29.76S WCI  19
$$

MEZ002-015-021-024-NHZ003-005-008-011-012-014-VTZ005-008-302100-
NORTHERN NEW ENGLAND

CITY           SKY/WX    TMP DP  RH WIND       PRES   REMARKS
PORTLAND ME    SNOW      31  28  89 N6        29.71S VSB 1/2 WCI  25
BANGOR ME      SNOW      33  32  96 E6        29.73F VSB 1/2 WCI  28
CONCORD NH     CLOUDY    31  27  85 NW3       29.72R
MANCHESTER NH  CLOUDY    32  27  81 NW9       29.71R WCI  24
NASHUA NH      FLURRIES  32  29  89 CALM      29.73S
PORTSMOUTH NH  FLURRIES  31  29  92 W3        29.70S
JAFFREY NH     FLURRIES  30  24  78 VRB3      29.69R
KEENE NH       CLOUDY    32  27  80 N7        29.73S WCI  26
BURLINGTON VT  LGT SNOW  18  11  74 N15G21    29.93R VSB 3/4 WCI   4
MT. WASHINGTON SNOW       7   7 100 N12         N/A  VSB 1/8 WCI  -9
$$

NYZ052-076-302100-
EASTERN NEW YORK

CITY           SKY/WX    TMP DP  RH WIND       PRES   REMARKS
ALBANY         PTSUNNY   28  15  58 NW26G33   29.86R WCI  13
NEW YORK CITY  PTSUNNY   37  21  52 NW22G28   29.83R WCI  26
$$

ANZALL-302100-
MARINE OBSERVATIONS

STATION/POSITION TIME  TEMP    WIND        PRES    VSBY  WAVE
                       AIR SEA DIR/SP/G                  HT/PER
                 (UTC) (F)     (DEG/KT/KT) (MB)    (MI)  (FT/S)
BOSTON BUOY      1950   33 41  310/ 12/ 14 1006.0F         2/ 9
BUZZARDS BAY     2000          320/ 11/ 12 1006.4F
NANTUCKET SOUND  NOT AVBL
MASS BAY-STELLWA 1904   33 41  320/ 10/ 12   N/A    1 7/8  3/11
ISLE OF SHOALS   2000   30     310/ 10/ 11 1005.2S
S OF BLOCK IS    1908      41                N/A           4/ 6
$$

......................KEY.........................
  SKY/WX - SKY CONDITION/PRESENT WEATHER
  TMP    - TEMPERATURE IN FAHRENHEIT
  DWPT   - DEWPOINT IN FAHRENHEIT
  RH     - RELATIVE HUMIDITY IN PERCENT
  WIND   - DIRECTION AND SPEED IN MPH
  PRES   - MEAN SEA LEVEL PRESSURE IN INCHES OF HG
  WCI    - WIND CHILL INDEX
  VSB    - VISIBILITY IN MILES
  HX     - HEAT INDEX
  TC     - TEMPERATURE IN CELSIUS
  VRB    - VARIABLE WIND DIRECTION
  N/A    - NOT AVAILABLE



USA.gov is the U.S. government's official web portal to all federal, state and local government web resources and services.